Regional Weather Roundup
Issued by NWS

Home | Current Version | Previous Version | Graphics & Text | Print | Product List | Glossary On
Versions: 1 2 3 4 5 6 7 8 9 10 11 12 13 14 15 16 17 18 19 20 21 22 23 24 25 26 27 28 29 30 31 32 33 34 35 36 37 38 39 40 41 42 43 44 45 46 47 48 49 50
000
ASUS43 KMPX 210010
RWRMN
WEATHER ROUNDUP FOR MINNESOTA
NATIONAL WEATHER SERVICE TWIN CITIES/CHANHASSEN MN
700 PM CDT MON APR 20 2015


NOTE: "FAIR" INDICATES FEW OR NO CLOUDS BELOW 12,000 FEET WITH NO
SIGNIFICANT WEATHER AND/OR OBSTRUCTIONS TO VISIBILITY. N/A MEANS
CURRENT SKY AND/OR WEATHER CONDITIONS ARE NOT AVAILABLE.

MNZ060>063-068>070-210100-
   Twin Cities Metro

CITY           SKY/WX    TMP DP  RH WIND       PRES   REMARKS
TWIN CITIES    CLOUDY    42  28  57 W25G35    29.52S
6HR MIN TEMP:  40; 6HR MAX TEMP:  43;

ST PAUL        CLOUDY    42  27  55 W18G33    29.52F
CRYSTAL        CLOUDY    42  29  59 W26G38    29.51R
BLAINE         CLOUDY    43  32  65 W22G31    29.50S
LAKEVILLE      CLOUDY    39  30  70 W16G22    29.54R
EDEN PRAIRIE   CLOUDY    42  28  57 W17G29    29.52S
6HR MIN TEMP:  40; 6HR MAX TEMP:  43;

SOUTH ST PAUL  CLOUDY    43  27  54 W17G25    29.52S
LAKE ELMO      CLOUDY    41  30  65 W16G30    29.51S
$$
MNZ001>005-007-008-013>017-022>024-027-028-210100-
   Northwest Minnesota

CITY           SKY/WX    TMP DP  RH WIND       PRES   REMARKS
BEMIDJI        LGT SNOW  32  31  96 NW16      29.48R VSB 3/4 WCI  21
HALLOCK        MIX PCPN  36  30  80 NW25G39   29.60R
ROSEAU         LGT SNOW  36  28  75 NW23      29.51R
WARROAD        LGT SNOW  34  28  80 NW22G31   29.49R WCI  22
THIEF RVR FALL CLOUDY    34  28  80 NW25G31   29.56R WCI  21
CROOKSTON      CLOUDY    34  34 100 N23G30    29.60S WCI  22
FOSSTON        FLURRIES  30  28  93 NW22G36   29.55R WCI  17
DETROIT LAKES  MIX PCPN  34  32  93 NW22G29   29.57S WCI  22
MOORHEAD       DRIZZLE   36  32  87 N18       29.63R
PARK RAPIDS    LGT SNOW  37  29  72 NW22G33   29.50R
MAHNOMEN       CLOUDY    33  30  86 NW25G36   29.56R WCI  20
$$
MNZ006-009>011-018-025>026-210100-
   North Central Minnesota

CITY           SKY/WX    TMP DP  RH WIND       PRES   REMARKS
BAUDETTE       LGT SNOW  33  29  85 NW17G32   29.42S FOG     WCI  22
FLAG ISLAND    CLOUDY    34  30  86 NW23G30   29.44R WCI  22
INTL FALLS     MIX PCPN  34  32  92 W13G21    29.35S WCI  25
6HR MIN TEMP:  31; 6HR MAX TEMP:  35; 6HR PCP:  0.03;

WASKISH        FLURRIES  34  30  86 W18G26    29.45R WCI  23
BIG FORK       LGT SNOW  34  30  86 W7        29.40S WCI  28
LONGVILLE      CLOUDY    36  28  75 W13G21    29.46R
GRAND RAPIDS   CLOUDY    34  27  75 W10       29.42S WCI  26
CRANE LAKE     CLOUDY    32  30  93 W3        29.35S
ORR            LGT SNOW  32  28  86 W12       29.32F WCI  23
COOK           LGT SNOW N/A N/A N/A W10G17    29.35F
$$
MNZ012-019>021-037-210100-
   Northeast Minnesota

CITY           SKY/WX    TMP DP  RH WIND       PRES   REMARKS
DULUTH         FLURRIES  34  25  69 W18G24    29.37S WCI  23
6HR MIN TEMP:  34; 6HR MAX TEMP:  37; 6HR PCP: TRACE;

ELY            CLOUDY    30  28  93 W8        29.32S FOG     WCI  23
HIBBING        LGT SNOW  33  27  78 W10G18    29.38S WCI  25
EVELETH        LGT SNOW  32  28  86 W10       29.37S WCI  24
DULUTH HARBOR  CLOUDY    37  30  75 W22       29.42R
TWO HARBORS    CLOUDY    37  30  75 W14G20    29.34S
SILVER BAY     CLOUDY    36  27  69 SW6G16    29.32S
GRAND MARAIS     N/A     37  29  72 W10G20    29.29R
G MARAIS ARPRT CLOUDY    30  25  80 W10G22    29.24R WCI  21
$$
MNZ029>031-032-039>041-046>048-054>057-064-210100-
   West Central Minnesota

CITY           SKY/WX    TMP DP  RH WIND       PRES   REMARKS
FERGUS FALLS   DRIZZLE   34  34 100 NW22G30   29.63R WCI  22
WHEATON        PTSUNNY   39  30  70 NW22G31   29.65S
MORRIS         CLOUDY    37  34  87 NW24      29.61R
ALEXANDRIA     CLOUDY    37  29  72 NW22G36   29.57R
ELBOW LAKE     LGT RAIN  35  33  95 NW24G31   29.60R WCI  22
WADENA         LGT RAIN  34  28  80 NW20G26     N/A  WCI  22
GLENWOOD       DRIZZLE   36  32  87 W25       29.58R
APPLETON       PTSUNNY   43  32  65 NW24G32   29.64R
BENSON         CLOUDY    39  32  75 N21G26    29.61S
ORTONVILLE     CLOUDY    41  28  60 NW16G25   29.64S
MADISON        CLOUDY    43  28  56 NW22G31   29.64S
WILLMAR        MIX PCPN  37  36  93 NW18      29.61R
$$
MNZ033>034-036-042>043-049>051-058-059-210100-
   Central Minnesota

CITY           SKY/WX    TMP DP  RH WIND       PRES   REMARKS
ST CLOUD       CLOUDY    39  28  64 W26G35    29.52R
6HR MIN TEMP:  38; 6HR MAX TEMP:  42; 6HR PCP: TRACE;

SAUK CENTRE    CLOUDY    37  30  75 NW18G26   29.55R
PAYNESVILLE    CLOUDY    36  31  83 SW20G28   29.57S
AITKIN         MIX PCPN  37  28  70 W7        29.45R
PINE RIVER     FLURRIES  36  28  75 W13G18    29.52R
BRAINERD       CLOUDY    37  27  67 NW15G23   29.49R
STAPLES        CLOUDY    36  28  75 NW17G28   29.52R
LONG PRAIRIE   CLOUDY    36  30  80 W22G32    29.54R
LITTLE FALLS   PTSUNNY   37  27  65 W15G28    29.52R
LITCHFIELD     PTSUNNY   39  34  81 W16G30    29.57S
BUFFALO        PTSUNNY   39  32  74 W14G21    29.54S
MAPLE LAKE     PTSUNNY   40  32  73 W21       29.54S
$$
MNZ037-044-045-052-053-210100-
   East Central Minnesota

CITY           SKY/WX    TMP DP  RH WIND       PRES   REMARKS
PRINCETON      CLOUDY    39  28  65 W18G29    29.51R
MORA           PTSUNNY   36  28  75 NW15G24   29.50R
CAMBRIDGE      DRIZZLE   41  28  60 W18       29.48R
RUSH CITY      CLOUDY    38  26  62 NW15G24   29.48R
MOOSE LAKE     LGT SNOW  34  28  80 W9        29.43R WCI  26
HINCKLEY       FLURRIES  36  32  87 W10G17    29.47R
CLOQUET        FLURRIES  34  27  75 W15       29.41R WCI  24
MCGREGOR       CLOUDY    34  30  86 W9        29.45S WCI  26
$$
MNZ071>073-080-081-089-090-097-098-210100-
   Southwest Minnesota

CITY           SKY/WX    TMP DP  RH WIND       PRES   REMARKS
MONTEVIDEO     CLOUDY    43  32  65 N20G28    29.64R
GRANITE FALLS  PTSUNNY   42  32  66 W16G22    29.65S
CANBY          CLOUDY    44  28  52 NW23G29   29.66S
MARSHALL       CLOUDY    43  25  49 NW18G25   29.64S
REDWOOD FALLS  CLOUDY    42  30  62 NW20      29.62R
OLIVIA         PTSUNNY   39  30  70 NW23G32   29.60R
PIPESTONE      SUNNY     46  23  39 NW24G36   29.65S
WINDOM         CLOUDY    43  27  52 NW25G32   29.65R
WORTHINGTON    PTSUNNY   46  25  42 NW26G33   29.66R
JACKSON        MOSUNNY   43  27  52 NW28G35   29.66R
TRACY          CLOUDY    44  28  54 NW17G26   29.65F
SLAYTON        CLOUDY    43  25  49 NW23G29   29.65F
$$
MNZ065>067-074>077-082>085-091>093-210100-
   South Central Minnesota

CITY           SKY/WX    TMP DP  RH WIND       PRES   REMARKS
MANKATO        CLOUDY    41  28  60 W29       29.60R
NEW ULM        PTSUNNY   43  28  56 W29G35    29.61R
ST JAMES       CLOUDY    43  27  52 W21G29    29.64R
FAIRMONT       CLOUDY    43  25  49 NW17G25   29.63S
GLENCOE        CLOUDY    41  34  76 W21G26    29.57S
FARIBAULT      CLOUDY    39  30  70 W21       29.57S
OWATONNA       CLOUDY    39  30  70 W17       29.58F
WASECA         CLOUDY    39  34  81 W15G21    29.61S
ALBERT LEA     CLOUDY    39  32  75 W13G20    29.61R
$$
MNZ078>079-086>088-094>096-210100-
   Southeast Minnesota

CITY           SKY/WX    TMP DP  RH WIND       PRES   REMARKS
ROCHESTER      CLOUDY    39  29  67 W20       29.56R
6HR MIN TEMP:  38; 6HR MAX TEMP:  42; 6HR PCP: TRACE;

RED WING       CLOUDY    43  27  52 W14       29.51F
STANTON        CLOUDY    42  30  62 W16G26    29.54S
DODGE CENTER   CLOUDY    39  32  75 W21       29.56R
WINONA         CLOUDY    43  28  56 NW15G26   29.54R
AUSTIN         CLOUDY    39  30  70 W20G28    29.59S
PRESTON        MIX PCPN  39  30  71 NW18G26   29.57R
$$
ABBREVIATIONS USED IN REMARKS
   TC - TEMPERATURES IN CELSIUS
  WCI - WIND CHILL INDEX
   HX - HEAT INDEX
  VSB - VISIBILITY
$$


USA.gov is the U.S. government's official web portal to all federal, state and local government web resources and services.